Tracking 23757 objects as of 26-Oct-2021
HD Live streaming from Space Station
objects crossing your sky now

ATLAS 14E R/B

Track ATLAS 14E R/B now!
10-day predictions


NORAD ID: 15272
Int'l Code: 1984-097B
Perigee: 1,438.0 km
Apogee: 19,917.0 km
Inclination: 64.5 °
Period: 369.2 minutes
Semi major axis: 17048 km
RCS: 2.3359 m2 (large)
Launch date: September 8, 1984
Source: United States (US)
Launch site: AIR FORCE WESTERN TEST RANGE (AFWTR)

Note: This is a ROCKET BODY
aabbcc
Your satellite tracking list
Your tracking list is empty




NASA's NSSDC Master Catalog

Two Line Element Set (TLE):
1 15272U 84097B   21297.56896433 -.00000064  00000-0  00000+0 0  9990
2 15272  64.4737  25.6498 5419522 328.9748  11.6192  3.90007190528816
Source of the keplerian elements: AFSPC